ONEWEB-0220 (48232 NORAD) Tracking and Keplerian Element Data

This shows tracking and keplerian element data for the satellite.

Feedback or suggestion? Click here.




ElementValue
Catalog48232
NameONEWEB-0220
Epoch Orbit181
Epoch Day136.75001157
Epoch Year2021
RAAN305.7388
Inclination87.4178
Eccentricity0.0011211
Argument of Perigee171.2237
Mean Anonmoly186.8976
Mean Motion15.36982234
Decay Rate-0.01366783
L11 48232U 21031Y 21136.75001157 -.01366783 00000-0 -41411-1 0 9993
L22 48232 87.4178 305.7388 0011211 171.2237 186.8976 15.36982234 1817

Live tracking and technical data element details for ONEWEB-0220 (NORAD 48232). ONEWEB-0220 can be tracked NOW for your location showing map with azimuth and elevation plus other details from your city location.

Track the satellite on the map from your city or location and see movement details for azimuth, elevation, latitude, longitude, range, height, and movement on the map or in text.







IsCatalogInMostPopularTable: catalog: 48232, numindb: 5
Update: records affected: 1



GetName: 48232 ONEWEB-0220

Hit Count: updated at: Mon, 17 May 2021 17:01:02 GMT